This demonstration page uses our WeatherBlox Daily Observations layout. Learn more.

Left ArrowRight Arrow

Hourly Observations for July 13, 2015

Temp ( °F °C ) Dew Point ( °F °C ) Humidity (%) Winds ( mph kmh ) Pressure ( in mb ) Visibility ( mi km ) Precip ( " mm )
1:53 am 01:53 Clear 66 18.9 65 18.3 96 96 N N/A 29.92 1013 9 14 N/A
2:46 am 02:46 Mostly Cloudy 68 20 66 18.9 93 93 NNW 5 7 29.94 1014 9 14 N/A
2:53 am 02:53 Mostly Cloudy 69 20.6 66 18.9 90 90 NNW 5 7 29.91 1013 10 16 N/A
3:01 am 03:01 Cloudy 69 20.6 66 18.9 90 90 N 6 9 29.91 1013 10 16 N/A
3:53 am 03:53 Cloudy 68 20 65 18.3 90 90 N 5 7 29.90 1012 10 16 N/A
4:53 am 04:53 Cloudy 68 20 65 18.3 90 90 N N/A 29.89 1012 10 16 N/A
5:53 am 05:53 Cloudy 68 20 65 18.3 90 90 N N/A 29.88 1012 10 16 N/A
6:53 am 06:53 Cloudy 69 20.6 65 18.3 87 87 N 3 6 29.88 1012 10 16 N/A
7:44 am 07:44 Cloudy 69 20.6 65 18.3 87 87 N N/A 29.91 1013 10 16 N/A
7:53 am 07:53 Cloudy 69 20.6 65 18.3 87 87 N N/A 29.90 1012 10 16 N/A
8:53 am 08:53 Cloudy 69 20.6 66 18.9 90 90 E 5 7 29.89 1012 10 16 N/A
9:53 am 09:53 Cloudy 72 22.2 67 19.4 84 84 VRB 6 9 29.89 1012 9 14 N/A
10:09 am 10:09 Mostly Cloudy 73 22.8 67 19.4 81 81 VRB 3 6 29.91 1013 10 16 N/A
10:20 am 10:20 Partly Cloudy 75 23.9 68 20 79 79 S 6 9 29.91 1013 10 16 N/A
10:53 am 10:53 Partly Cloudy 75 23.9 68 20 79 79 VRB 3 6 29.88 1012 10 16 N/A
11:15 am 11:15 Mostly Cloudy 76 24.4 69 20.6 79 79 E 6 9 29.88 1012 10 16 N/A
11:53 am 11:53 Partly Cloudy 78 25.6 69 20.6 74 74 S 6 9 29.85 1011 10 16 N/A
12:53 pm 12:53 Mostly Cloudy 79 26.1 72 22.2 79 79 SW 3 6 29.85 1011 10 16 N/A
1:00 pm 13:00 Mostly Cloudy with Nearby Thunderstorms 78 25.6 72 22.2 82 82 N N/A 29.85 1011 10 16 N/A
1:17 pm 13:17 Mostly Cloudy with Thunderstorms 72 22.2 68 20 87 87 N 26 43 29.97 1015 2 3 0.19 4.83
1:21 pm 13:21 Mostly Cloudy with Strong Thunderstorms 67 19.4 65 18.3 93 93 NNE 17 28 29.97 1015 1 2 0.28 7.11
1:26 pm 13:26 Mostly Cloudy with Strong Thunderstorms 66 18.9 65 18.3 96 96 N 18 30 29.94 1014 1 1 0.48 12.19
1:36 pm 13:36 Cloudy with Strong Thunderstorms 66 18.9 65 18.3 96 96 N 16 26 29.94 1014 1 1 0.74 18.80
1:41 pm 13:41 Cloudy with Thunderstorms 67 19.4 65 18.3 93 93 N 13 20 29.94 1014 2 2 0.74 18.80
1:44 pm 13:44 Cloudy with Thunderstorms 67 19.4 65 18.3 93 93 N 13 20 29.91 1013 3 5 0.75 19.05
1:53 pm 13:53 Cloudy with Nearby Thunderstorms 67 19.4 64 17.8 91 91 NNE 8 13 29.90 1013 5 8 0.76 19.30
2:17 pm 14:17 Cloudy with Thunderstorms 68 20 64 17.8 87 87 NNE 3 6 29.91 1013 5 8 0.05 1.27
2:29 pm 14:29 Cloudy with Nearby Thunderstorms 67 19.4 65 18.3 93 93 N N/A 29.91 1013 3 4 0.10 2.54
2:33 pm 14:33 Cloudy with Strong Thunderstorms 67 19.4 65 18.3 93 93 N N/A 29.88 1012 2 3 0.12 3.05
2:40 pm 14:40 Cloudy with Thunderstorms 67 19.4 65 18.3 93 93 E 9 15 29.85 1011 3 5 0.14 3.56
2:53 pm 14:53 Cloudy with Thunderstorms 67 19.4 65 18.3 93 93 VRB 6 9 29.82 1010 4 6 0.18 4.57
3:02 pm 15:02 Cloudy with Nearby Thunderstorms 67 19.4 65 18.3 93 93 ESE 8 13 29.80 1009 6 10 0.01 0.25
3:17 pm 15:17 Partly Cloudy with Light Rain 68 20 65 18.3 90 90 VRB 5 7 29.80 1009 10 16 0.01 0.25
3:53 pm 15:53 Sunny 70 21.1 67 19.4 90 90 N N/A 29.78 1009 10 16 0.01 0.25
4:53 pm 16:53 Mostly Sunny 75 23.9 69 20.6 82 82 VRB 3 6 29.78 1009 10 16 N/A
5:53 pm 17:53 Mostly Cloudy 77 25 69 20.6 77 77 SW 8 13 29.77 1008 10 16 N/A
6:53 pm 18:53 Sunny 77 25 69 20.6 77 77 VRB 5 7 29.75 1008 10 16 N/A
7:53 pm 19:53 Mostly Cloudy 77 25 69 20.6 77 77 S 6 9 29.75 1007 10 16 N/A
8:53 pm 20:53 Cloudy 75 23.9 68 20 79 79 SSE 5 7 29.74 1007 10 16 N/A
9:53 pm 21:53 Mostly Cloudy 74 23.3 68 20 82 82 S 5 7 29.71 1006 10 16 N/A
10:53 pm 22:53 Mostly Cloudy with Light Rain 73 22.8 70 21.1 90 90 VRB 7 11 29.67 1005 10 16 0.01 0.25
11:34 pm 23:34 Mostly Cloudy with Nearby Thunderstorms 73 22.8 70 21.1 90 90 VRB 5 7 29.71 1006 9 14 0.02 0.51
11:40 pm 23:40 Mostly Cloudy with Thunderstorms 73 22.8 71 21.7 94 94 S 3 6 29.71 1006 2 3 0.10 2.54
11:53 pm 23:53 Mostly Cloudy with Thunderstorms 73 22.8 71 21.7 94 94 SW 6 9 29.69 1006 7 11 0.11 2.79

Powered by AerisWeather